Location: Waldport
(44.4270°N, 124.0680°W)
Time: 00:36:52
(UTC-07:00)

NOSS 3-4 (C) - Pass Details

Date: 23 June 2018
Orbit: 934 x 1278 km, 63.4° (Epoch: 19 September)

Event Time Altitude Azimuth Distance (km) Brightness Sun altitude
Rises 23:44:13 0° 228° (SW) 3,578 6.3 -18.8°
Reaches altitude 10° 23:46:45 10° 232° (SW) 2,644 5.6 -19.0°
Maximum altitude 23:52:49 61° 312° (NW) 1,082 4.0 -19.4°
Drops below altitude 10° 23:59:14 10° 33° (NNE) 2,790 6.4 -19.8°
Sets 00:01:58 0° 37° (NE) 3,790 7.1 -19.9°
